Location: Berlin
(52.5171°N, 13.3759°E)
Time: 09:00:27
(UTC+01:00)

Tiangong 1 - Visible Passes

Search period start: 25 November 2017 00:00
Search period end: 05 December 2017 00:00
Orbit: 283 x 307 km, 42.8° (Epoch: 24 November)

Date Brightness Start Highest point End Pass type
(mag) Time Alt. Az. Time Alt. Az. Time Alt. Az.
30 Nov 3.7 18:18:58 10° SSW 18:19:03 10° SSW 18:19:03 10° SSW visible
02 Dec 3.6 16:55:41 10° S 16:56:10 10° S 16:56:38 10° SSE visible
03 Dec 3.7 17:00:44 10° SSW 17:01:15 10° S 17:01:47 10° S visible
